GW3359 Weather Reports


Display with metric or nautical units.
time (UTC)temp
F
wind
direction
speed
MPH
gust
MPH
rain 1hr
in
rain 24hr
in
rain mn
in
humidity
%
barometer
mb
20260906120503 72 91 0.0 0.0 0.00 0.00 0.00 91 1013.3
20260906120005 72 91 0.0 0.0 0.00 0.00 0.00 91 1013.2
20260906115504 72 91 0.0 0.0 0.00 0.00 0.00 90 1013.2
20260906115004 72 91 0.0 0.0 0.00 0.00 0.00 90 1013.2
20260906114508 72 91 0.0 0.0 0.00 0.00 0.00 90 1013.1
20260906114003 72 91 0.0 0.0 0.00 0.00 0.00 90 1013.1
20260906113503 72 91 0.0 0.0 0.00 0.00 0.00 90 1013.1
20260906113021 72 91 0.0 0.0 0.00 0.00 0.00 90 1013.0
20260906112508 72 91 0.0 0.0 0.00 0.00 0.00 90 1013.0
20260906112010 72 91 0.0 0.0 0.00 0.00 0.00 89 1012.9
20260906111524 72 91 0.0 0.0 0.00 0.00 0.00 89 1012.8
20260906111011 72 91 0.0 0.0 0.00 0.00 0.00 89 1012.7
20260906110514 72 91 0.0 0.0 0.00 0.00 0.00 89 1012.7
20260906110004 72 91 0.0 0.0 0.00 0.00 0.00 89 1012.7
20260906105503 72 91 0.0 0.0 0.00 0.00 0.00 89 1012.8
20260906105003 72 91 0.0 0.0 0.00 0.00 0.00 88 1012.7
20260906104515 72 91 0.0 0.0 0.00 0.00 0.00 88 1012.6
20260906104003 72 91 0.0 0.0 0.00 0.00 0.00 88 1012.5
20260906103503 72 91 0.0 0.0 0.00 0.00 0.00 88 1012.5
20260906103014 72 91 0.0 0.0 0.00 0.00 0.00 88 1012.4
20260906102508 73 91 0.0 0.0 0.00 0.00 0.00 88 1012.4
20260906102008 73 91 0.0 0.0 0.00 0.00 0.00 87 1012.5
20260906101521 73 91 0.0 0.0 0.00 0.00 0.00 87 1012.5
20260906101012 73 91 0.0 0.0 0.00 0.00 0.00 87 1012.6
20260906100516 73 91 0.0 0.0 0.00 0.00 0.00 87 1012.6
20260906100027 73 91 0.0 0.0 0.00 0.00 0.00 87 1012.7
20260906095515 73 91 0.0 0.0 0.00 0.00 0.00 87 1012.7
20260906095015 73 91 0.0 0.0 0.00 0.00 0.00 87 1012.7
20260906094510 73 91 0.0 4.0 0.00 0.00 0.00 87 1012.8
20260906094003 73 91 1.0 4.0 0.00 0.00 0.00 87 1012.9
20260906093503 73 213 0.0 4.0 0.00 0.00 0.00 87 1012.9
20260906093011 73 213 1.0 4.0 0.00 0.00 0.00 87 1012.8
20260906092503 73 115 0.0 0.0 0.00 0.00 0.00 87 1012.7
20260906091519 73 115 0.0 0.0 0.00 0.00 0.00 87 1012.7
20260906091007 73 115 0.0 0.0 0.00 0.00 0.00 87 1012.7
20260906090511 73 115 0.0 0.0 0.00 0.00 0.00 87 1012.5
20260906090025 73 115 0.0 0.0 0.00 0.00 0.00 87 1012.4
20260906085511 73 115 0.0 0.0 0.00 0.00 0.00 86 1012.4
20260906085014 73 115 0.0 0.0 0.00 0.00 0.00 86 1012.4
20260906084543 73 115 0.0 0.0 0.00 0.00 0.00 86 1012.4
20260906084014 74 115 0.0 0.0 0.00 0.00 0.00 85 1012.4
20260906083517 74 115 0.0 0.0 0.00 0.00 0.00 85 1012.4
20260906083015 74 115 0.0 0.0 0.00 0.00 0.00 85 1012.4
20260906082505 74 115 0.0 0.0 0.00 0.00 0.00 84 1012.4
20260906082004 74 115 0.0 0.0 0.00 0.00 0.00 84 1012.4
20260906081514 75 115 0.0 0.0 0.00 0.00 0.00 84 1012.5
20260906081007 75 115 0.0 2.0 0.00 0.00 0.00 84 1012.5
20260906080507 75 115 0.0 2.0 0.00 0.00 0.00 83 1012.5
20260906080029 75 115 0.0 4.0 0.00 0.00 0.00 83 1012.7
20260906075511 75 90 1.0 4.0 0.00 0.00 0.00 83 1012.8
20260906075013 75 85 1.0 6.0 0.00 0.00 0.00 82 1012.8
20260906074527 75 75 2.0 6.0 0.00 0.00 0.00 82 1012.8
20260906074012 76 100 0.0 1.0 0.00 0.00 0.00 81 1012.9
20260906073515 76 100 0.0 1.0 0.00 0.00 0.00 81 1012.7
20260906073038 76 100 0.0 0.0 0.00 0.00 0.00 80 1012.7
20260906072514 76 100 0.0 0.0 0.00 0.00 0.00 80 1012.8
20260906072016 76 98 0.0 3.0 0.00 0.00 0.00 80 1012.8
20260906071513 76 96 0.0 3.0 0.00 0.00 0.00 79 1012.9
20260906071007 76 105 0.0 5.0 0.00 0.00 0.00 79 1012.9
20260906070509 76 90 1.0 5.0 0.00 0.00 0.00 78 1012.9
20260906070020 77 96 2.0 5.0 0.00 0.00 0.00 78 1013.0
20260906065502 77 29 0.0 5.0 0.00 0.00 0.00 78 1013.0
20260906065002 77 169 1.0 3.0 0.00 0.00 0.00 78 1012.9
20260906064503 77 101 0.0 7.0 0.00 0.00 0.00 78 1012.8
20260906064003 77 229 0.0 7.0 0.00 0.00 0.00 78 1012.8
20260906063502 77 195 0.0 4.0 0.00 0.00 0.00 79 1012.9
20260906063004 77 162 1.0 4.0 0.00 0.00 0.00 80 1012.8
20260906062503 77 25 0.0 2.0 0.00 0.00 0.00 80 1012.9
20260906062004 78 116 0.0 2.0 0.00 0.00 0.00 79 1012.8
20260906061507 78 81 0.0 3.0 0.00 0.00 0.00 79 1012.8
20260906061004 78 81 0.0 3.0 0.00 0.00 0.00 79 1012.7
20260906060506 78 136 0.0 4.0 0.00 0.00 0.00 78 1012.9
20260906060008 79 109 0.0 4.0 0.00 0.00 0.00 77 1013.2
20260906055503 79 215 0.0 5.0 0.00 0.00 0.00 77 1013.2
20260906055003 79 211 2.0 5.0 0.00 0.00 0.00 77 1013.3
20260906054507 79 308 0.0 5.0 0.00 0.00 0.00 76 1013.4
20260906054003 80 227 2.0 5.0 0.00 0.00 0.00 76 1013.6
20260906053502 80 254 2.0 3.0 0.00 0.00 0.00 75 1013.3
20260906053006 80 217 1.0 4.0 0.00 0.00 0.00 75 1013.2
20260906052504 80 179 0.0 6.0 0.00 0.00 0.00 74 1013.2
20260906052004 80 223 1.0 10.0 0.00 0.00 0.00 73 1013.2
20260906051509 80 202 4.0 10.0 0.00 0.00 0.00 73 1013.2
20260906051004 81 205 3.0 7.0 0.00 0.00 0.00 73 1013.2
20260906050503 81 240 3.0 9.0 0.00 0.00 0.00 73 1013.2
20260906050010 80 224 1.0 9.0 0.00 0.00 0.00 73 1013.0
20260906045504 80 277 4.0 8.0 0.00 0.00 0.00 73 1013.2
20260906045004 80 248 2.0 9.0 0.00 0.00 0.00 74 1013.2
20260906044515 80 248 3.0 9.0 0.00 0.00 0.00 75 1013.3
20260906044003 79 188 2.0 10.0 0.00 0.00 0.00 77 1013.2
20260906043504 78 143 2.0 10.0 0.00 0.00 0.00 77 1013.0
20260906042502 78 178 0.0 0.0 0.00 0.00 0.00 82 1012.7
20260906042003 78 178 0.0 0.0 0.00 0.00 0.00 82 1012.7
20260906041508 78 178 0.0 0.0 0.00 0.00 0.00 81 1012.7
20260906041006 78 178 0.0 0.0 0.00 0.00 0.00 81 1012.7
20260906040505 78 178 0.0 0.0 0.00 0.00 0.00 82 1012.7
20260906040014 79 178 0.0 0.0 0.00 0.00 0.00 82 1012.7
20260906035508 79 178 0.0 0.0 0.00 0.00 0.00 82 1012.7
20260906035004 79 178 0.0 0.0 0.00 0.00 0.00 81 1012.7
20260906034526 79 178 0.0 0.0 0.00 0.00 0.00 81 1012.9
20260906034004 79 178 0.0 0.0 0.00 0.00 0.00 81 1013.0
20260906033505 79 178 0.0 0.0 0.00 0.00 0.00 81 1012.9
20260906033024 79 178 0.0 0.0 0.00 0.00 0.00 80 1012.7
20260906032504 79 178 0.0 0.0 0.00 0.00 0.00 79 1012.6
20260906032006 79 178 0.0 0.0 0.00 0.00 0.00 79 1012.5
20260906031503 79 178 0.0 0.0 0.00 0.00 0.00 79 1012.5
20260906031003 79 178 0.0 0.0 0.00 0.00 0.00 80 1012.5
20260906030503 79 178 0.0 0.0 0.00 0.00 0.00 78 1012.5
20260906030006 79 178 0.0 0.0 0.00 0.00 0.00 76 1012.5
20260906025504 80 178 0.0 0.0 0.00 0.00 0.00 77 1012.5
20260906025006 80 174 0.0 0.0 0.00 0.00 0.00 76 1012.3
20260906024512 80 117 0.0 0.0 0.00 0.00 0.00 77 1012.3
20260906024008 80 159 0.0 0.0 0.00 0.00 0.00 78 1012.2
20260906023508 81 134 0.0 0.0 0.00 0.00 0.00 78 1012.1
20260906023016 81 160 0.0 0.0 0.00 0.00 0.00 77 1011.9
20260906022507 81 175 0.0 0.0 0.00 0.00 0.00 77 1011.9
20260906022007 81 178 0.0 0.0 0.00 0.00 0.00 76 1011.9
20260906021514 82 176 0.0 0.0 0.00 0.00 0.00 75 1011.6
20260906021009 82 178 0.0 0.0 0.00 0.00 0.00 75 1011.6
20260906020508 82 177 0.0 0.0 0.00 0.00 0.00 75 1011.6
20260906020004 82 177 0.0 0.0 0.00 0.00 0.00 75 1011.5
20260906015502 83 170 0.0 0.0 0.00 0.00 0.00 74 1011.5
20260906015007 83 176 0.0 1.0 0.00 0.00 0.00 74 1011.6
20260906014523 83 177 0.0 1.0 0.00 0.00 0.00 74 1011.6
20260906014011 83 178 0.0 0.0 0.00 0.00 0.00 74 1011.6
20260906013507 83 178 0.0 1.0 0.00 0.00 0.00 72 1011.5
20260906013019 83 178 0.0 1.0 0.00 0.00 0.00 74 1011.4
20260906012510 83 178 0.0 7.0 0.00 0.00 0.00 73 1011.3
20260906012011 82 177 0.0 7.0 0.00 0.00 0.00 73 1011.4
20260906011532 82 225 1.0 7.0 0.00 0.00 0.00 74 1011.6
20260906011009 82 29 0.0 0.0 0.00 0.00 0.00 74 1011.6
20260906010509 83 30 0.0 0.0 0.00 0.00 0.00 75 1011.5
20260906010020 83 31 0.0 0.0 0.00 0.00 0.00 75 1011.5
20260906005508 83 31 0.0 0.0 0.00 0.00 0.00 74 1011.5
20260906005016 83 31 0.0 0.0 0.00 0.00 0.00 73 1011.4
20260906004512 84 31 0.0 0.0 0.00 0.00 0.00 74 1011.4
20260906004007 84 31 0.0 0.0 0.00 0.00 0.00 74 1011.3
20260906003506 84 31 0.0 0.0 0.00 0.00 0.00 73 1011.4
20260906003014 85 31 0.0 0.0 0.00 0.00 0.00 72 1011.3
20260906002507 85 31 0.0 0.0 0.00 0.00 0.00 72 1011.4
20260906002010 85 31 0.0 0.0 0.00 0.00 0.00 72 1011.4
20260906001520 86 31 0.0 0.0 0.00 0.00 0.00 69 1011.4
20260906001011 86 31 0.0 0.0 0.00 0.00 0.00 70 1011.3
20260906000515 87 31 0.0 0.0 0.00 0.00 0.00 69 1011.3
20260906000024 87 31 0.0 0.0 0.00 0.00 0.00 69 1011.2
20260905235512 88 31 0.0 0.0 0.00 0.00 0.00 68 1011.2
20260905235012 88 31 0.0 0.0 0.00 0.00 0.00 67 1011.2
20260905234525 89 31 0.0 0.0 0.00 0.00 0.00 65 1011.3
20260905234014 89 31 0.0 0.0 0.00 0.00 0.00 65 1011.3
20260905233510 90 31 0.0 0.0 0.00 0.00 0.00 63 1011.3
20260905233015 90 31 0.0 2.0 0.00 0.00 0.00 63 1011.4
20260905232508 91 31 0.0 4.0 0.00 0.00 0.00 61 1011.4
20260905232008 91 31 1.0 4.0 0.00 0.00 0.00 59 1011.2
20260905231518 91 354 0.0 3.0 0.00 0.00 0.00 60 1011.1
20260905231011 92 44 0.0 4.0 0.00 0.00 0.00 61 1011.3
20260905230511 93 342 0.0 4.0 0.00 0.00 0.00 59 1011.2
20260905230031 93 15 0.0 3.0 0.00 0.00 0.00 58 1011.2
20260905225513 94 319 1.0 3.0 0.00 0.00 0.00 57 1011.2
20260905225013 95 323 1.0 4.0 0.00 0.00 0.00 56 1011.1
20260905224530 95 120 0.0 5.0 0.00 0.00 0.00 54 1011.1
20260905224013 95 140 2.0 5.0 0.00 0.00 0.00 51 1011.1
20260905223512 95 56 1.0 4.0 0.00 0.00 0.00 54 1011.2
20260905223031 95 100 2.0 5.0 0.00 0.00 0.00 51 1011.2
20260905222519 95 115 1.0 5.0 0.00 0.00 0.00 50 1011.2
20260905222013 95 59 1.0 4.0 0.00 0.00 0.00 55 1011.2
20260905221516 95 44 1.0 5.0 0.00 0.00 0.00 52 1011.2
20260905221008 95 101 2.0 5.0 0.00 0.00 0.00 52 1011.2
20260905220510 96 46 2.0 6.0 0.00 0.00 0.00 50 1011.2
20260905220024 96 22 1.0 6.0 0.00 0.00 0.00 53 1011.2
20260905215513 96 70 2.0 6.0 0.00 0.00 0.00 48 1011.2
20260905215010 96 44 1.0 3.0 0.00 0.00 0.00 50 1011.2
20260905214530 96 83 0.0 4.0 0.00 0.00 0.00 54 1011.3
20260905214014 97 58 0.0 4.0 0.00 0.00 0.00 52 1011.3
20260905213518 97 38 0.0 5.0 0.00 0.00 0.00 54 1011.3
20260905213039 97 106 0.0 5.0 0.00 0.00 0.00 48 1011.3
20260905212518 96 64 1.0 5.0 0.00 0.00 0.00 50 1011.3
20260905212017 96 24 1.0 5.0 0.00 0.00 0.00 50 1011.3
20260905211534 96 41 2.0 5.0 0.00 0.00 0.00 50 1011.3
20260905211018 95 108 1.0 6.0 0.00 0.00 0.00 51 1011.4
20260905210513 95 71 0.0 7.0 0.00 0.00 0.00 52 1011.4
20260905210021 94 262 2.0 7.0 0.00 0.00 0.00 54 1011.5
20260905205512 94 303 0.0 2.0 0.00 0.00 0.00 57 1011.5
20260905205013 94 303 0.0 2.0 0.00 0.00 0.00 57 1011.6
20260905204527 95 303 0.0 2.0 0.00 0.00 0.00 57 1011.7
20260905204007 96 303 0.0 2.0 0.00 0.00 0.00 55 1011.8
20260905203503 97 303 0.0 6.0 0.00 0.00 0.00 53 1011.8
20260905203006 97 174 0.0 6.0 0.00 0.00 0.00 48 1011.9
20260905202503 97 236 1.0 7.0 0.00 0.00 0.00 49 1011.9
20260905202003 97 27 2.0 7.0 0.00 0.00 0.00 49 1012.0
20260905201510 97 66 3.0 6.0 0.00 0.00 0.00 50 1012.1
20260905201007 96 49 1.0 4.0 0.00 0.00 0.00 52 1012.2
20260905200507 96 38 0.0 3.0 0.00 0.00 0.00 52 1012.3
20260905200017 95 7 0.0 2.0 0.00 0.00 0.00 54 1012.4
20260905195509 95 127 0.0 2.0 0.00 0.00 0.00 52 1012.5
20260905195009 95 127 0.0 3.0 0.00 0.00 0.00 52 1012.5
20260905194524 95 127 0.0 3.0 0.00 0.00 0.00 52 1012.6
20260905194011 95 57 1.0 2.0 0.00 0.00 0.00 54 1012.6
20260905193516 95 57 0.0 5.0 0.00 0.00 0.00 53 1012.7
20260905193029 95 22 2.0 7.0 0.00 0.00 0.00 51 1012.7
20260905192504 95 105 0.0 7.0 0.00 0.00 0.00 50 1012.7
20260905192004 95 165 1.0 3.0 0.00 0.00 0.00 53 1012.7
20260905191509 95 18 0.0 2.0 0.00 0.00 0.00 54 1012.8
20260905191004 95 18 0.0 4.0 0.00 0.00 0.00 52 1012.9
20260905190503 96 38 1.0 5.0 0.00 0.00 0.00 48 1013.1
20260905190013 96 91 1.0 5.0 0.00 0.00 0.00 46 1013.2
20260905185507 96 266 0.0 6.0 0.00 0.00 0.00 50 1013.2
20260905185009 96 147 1.0 6.0 0.00 0.00 0.00 48 1013.3
20260905184521 95 49 0.0 3.0 0.00 0.00 0.00 51 1013.3
20260905184010 95 2 1.0 5.0 0.00 0.00 0.00 51 1013.4
20260905183512 95 234 2.0 5.0 0.00 0.00 0.00 48 1013.6
20260905183028 95 266 0.0 4.0 0.00 0.00 0.00 51 1013.7
20260905182514 96 192 1.0 4.0 0.00 0.00 0.00 50 1013.8
20260905182016 96 38 1.0 3.0 0.00 0.00 0.00 51 1013.8
20260905181535 95 68 0.0 2.0 0.00 0.00 0.00 53 1013.9
20260905181004 95 68 0.0 3.0 0.00 0.00 0.00 52 1014.0
20260905180506 95 68 0.0 4.0 0.00 0.00 0.00 54 1014.1
20260905180014 95 11 0.0 4.0 0.00 0.00 0.00 51 1014.1
20260905175507 95 56 1.0 3.0 0.00 0.00 0.00 52 1014.0
20260905175006 94 266 0.0 4.0 0.00 0.00 0.00 54 1014.1
20260905174523 94 181 0.0 4.0 0.00 0.00 0.00 53 1014.1
20260905174010 94 111 2.0 4.0 0.00 0.00 0.00 53 1014.2
20260905173512 94 108 0.0 5.0 0.00 0.00 0.00 56 1014.2
20260905173023 93 264 1.0 5.0 0.00 0.00 0.00 56 1014.3
20260905172512 93 240 1.0 3.0 0.00 0.00 0.00 57 1014.3
20260905172016 93 256 1.0 4.0 0.00 0.00 0.00 55 1014.3
20260905171529 93 179 0.0 4.0 0.00 0.00 0.00 58 1014.4
20260905171017 92 223 0.0 4.0 0.00 0.00 0.00 57 1014.4
20260905170515 92 202 1.0 5.0 0.00 0.00 0.00 60 1014.4
20260905170034 92 264 2.0 5.0 0.00 0.00 0.00 61 1014.4
20260905165507 91 50 0.0 6.0 0.00 0.00 0.00 62 1014.5
20260905165003 91 66 2.0 6.0 0.00 0.00 0.00 62 1014.6
20260905164516 90 37 1.0 3.0 0.00 0.00 0.00 62 1014.6
20260905164008 89 258 1.0 5.0 0.00 0.00 0.00 64 1014.7
20260905163508 89 81 0.0 5.0 0.00 0.00 0.00 65 1014.9
20260905163024 88 188 1.0 5.0 0.00 0.00 0.00 67 1014.9
20260905162515 88 44 0.0 5.0 0.00 0.00 0.00 68 1014.9
20260905162013 87 233 0.0 5.0 0.00 0.00 0.00 69 1015.0
20260905161530 87 277 0.0 5.0 0.00 0.00 0.00 68 1015.0
20260905161014 86 233 2.0 4.0 0.00 0.00 0.00 70 1015.1
20260905160515 86 293 0.0 5.0 0.00 0.00 0.00 73 1015.1
20260905160040 85 117 0.0 5.0 0.00 0.00 0.00 76 1015.1
20260905155517 85 266 0.0 3.0 0.00 0.00 0.00 76 1015.2
20260905155014 85 266 0.0 3.0 0.00 0.00 0.00 75 1015.2
20260905154534 84 75 1.0 3.0 0.00 0.00 0.00 75 1015.2
20260905154008 84 182 0.0 4.0 0.00 0.00 0.00 76 1015.2
20260905153508 83 255 1.0 4.0 0.00 0.00 0.00 77 1015.3
20260905153022 83 152 0.0 4.0 0.00 0.00 0.00 79 1015.3
20260905152512 82 179 1.0 6.0 0.00 0.00 0.00 80 1015.3
20260905152011 82 233 2.0 6.0 0.00 0.00 0.00 79 1015.4
20260905151530 81 98 0.0 1.0 0.00 0.00 0.00 81 1015.4
20260905151013 81 98 0.0 0.0 0.00 0.00 0.00 84 1015.4
20260905150514 81 98 0.0 0.0 0.00 0.00 0.00 84 1015.5
20260905150032 81 98 0.0 0.0 0.00 0.00 0.00 85 1015.5
20260905145516 80 98 0.0 0.0 0.00 0.00 0.00 85 1015.5
20260905145016 80 98 0.0 0.0 0.00 0.00 0.00 86 1015.7
20260905144536 80 98 0.0 0.0 0.00 0.00 0.00 86 1015.7
20260905144016 79 98 0.0 0.0 0.00 0.00 0.00 85 1015.7
20260905143508 79 98 0.0 0.0 0.00 0.00 0.00 87 1015.7
20260905143018 79 97 0.0 0.0 0.00 0.00 0.00 86 1015.6
20260905142512 78 96 0.0 0.0 0.00 0.00 0.00 87 1015.6
20260905142007 78 96 0.0 0.0 0.00 0.00 0.00 87 1015.6
20260905141527 78 96 0.0 0.0 0.00 0.00 0.00 88 1015.6
20260905141002 77 96 0.0 2.0 0.00 0.00 0.00 88 1015.5
20260905140504 77 98 0.0 2.0 0.00 0.00 0.00 89 1015.5
20260905140006 77 98 0.0 1.0 0.00 0.00 0.00 89 1015.5
20260905135504 76 98 0.0 1.0 0.00 0.00 0.00 89 1015.4
20260905135004 76 98 0.0 2.0 0.00 0.00 0.00 89 1015.5
20260905134510 76 98 0.0 2.0 0.00 0.00 0.00 90 1015.6
20260905134003 76 98 0.0 2.0 0.00 0.00 0.00 90 1015.6
20260905133508 75 98 1.0 2.0 0.00 0.00 0.00 91 1015.5
20260905133016 75 335 0.0 0.0 0.00 0.00 0.00 92 1015.5
20260905132508 75 335 0.0 0.0 0.00 0.00 0.00 92 1015.6
20260905132008 75 335 0.0 0.0 0.00 0.00 0.00 92 1015.6
20260905131528 74 335 0.0 0.0 0.00 0.00 0.00 92 1015.5
20260905131013 74 335 0.0 0.0 0.00 0.00 0.00 92 1015.5
20260905130512 74 335 0.0 0.0 0.00 0.00 0.00 92 1015.6
20260905130028 74 335 0.0 0.0 0.00 0.00 0.00 92 1015.6
20260905125505 73 335 0.0 0.0 0.00 0.00 0.00 92 1015.6
20260905125003 73 335 0.0 0.0 0.00 0.00 0.00 92 1015.8
20260905124507 73 335 0.0 0.0 0.00 0.00 0.00 92 1015.8
20260905124003 73 335 0.0 0.0 0.00 0.00 0.00 92 1015.7
20260905123503 73 335 0.0 0.0 0.00 0.00 0.00 92 1015.7
20260905123012 73 335 0.0 0.0 0.00 0.00 0.00 92 1015.6
20260905122506 72 335 0.0 0.0 0.00 0.00 0.00 92 1015.5
20260905122007 72 335 0.0 0.0 0.00 0.00 0.00 91 1015.4
20260905121520 72 335 0.0 0.0 0.00 0.00 0.00 91 1015.3
20260905121013 72 335 0.0 0.0 0.00 0.00 0.00 91 1015.3